This demonstration page uses our WeatherBlox Daily Observations layout. Learn more.

Left ArrowRight Arrow

Hourly Observations for January 21, 2017

Temp ( °F °C ) Dew Point ( °F °C ) Humidity (%) Winds ( mph kmh ) Pressure ( in mb ) Visibility ( mi km ) Precip ( " mm )
12:53 am 00:53 Cloudy 46 7.8 41 5 83 83 S 20 31 29.37 995 10 16 0.00 0.00
1:53 am 01:53 Cloudy with Light Rain 46 7.8 41 5 83 83 S 13 20 29.39 995 10 16 0.00 0.03
2:45 am 02:45 Cloudy with Light Rain 46 7.8 41 5 83 83 S 10 17 29.47 998 10 16 0.01 0.25
2:53 am 02:53 Cloudy 46 7.8 41 5 83 83 SSW 10 17 29.43 997 10 16 0.02 0.51
3:53 am 03:53 Cloudy with Light Rain 46 7.8 41 5 83 83 S 14 22 29.45 997 10 16 0.00 0.03
4:53 am 04:53 Cloudy 45 7.2 42 5.6 90 90 S 14 22 29.48 998 10 16 0.04 1.02
5:17 am 05:17 Cloudy 45 7.2 42 5.6 90 90 S 14 22 29.53 1000 10 16 0.00 0.00
5:53 am 05:53 Cloudy 45 7.2 42 5.6 90 90 S 14 22 29.50 999 10 16 0.00 0.03
6:53 am 06:53 Cloudy 45 7.2 42 5.6 90 90 S 16 26 29.54 1000 10 16 0.00 0.00
7:53 am 07:53 Cloudy 45 7.2 42 5.6 90 90 S 18 30 29.58 1002 10 16 0.00 0.00
8:53 am 08:53 Cloudy 46 7.8 43 6.1 89 89 SSW 12 19 29.63 1003 10 16 0.02 0.51
9:53 am 09:53 Cloudy 46 7.8 43 6.1 89 89 S 13 20 29.66 1005 10 16 0.00 0.03
10:08 am 10:08 Cloudy 47 8.3 43 6.1 86 86 S 18 30 29.71 1006 10 16 0.00 0.00
10:53 am 10:53 Cloudy 48 8.9 43 6.1 83 83 S 18 30 29.70 1006 10 16 0.00 0.00
11:53 am 11:53 Cloudy 49 9.4 43 6.1 80 80 S 14 22 29.72 1007 10 16 0.00 0.00
12:53 pm 12:53 Cloudy 50 10 44 6.7 80 80 S 18 30 29.72 1006 10 16 0.00 0.00
1:53 pm 13:53 Cloudy with Light Rain 50 10 45 7.2 83 83 S 17 28 29.73 1007 5 8 0.07 1.78
2:08 pm 14:08 Cloudy with Rain 48 9 46 8 94 94 WSW 7 11 29.77 1008 3 4 0.00 0.00
2:16 pm 14:16 Cloudy with Light Rain 48 8.9 46 7.8 93 93 Calm 29.77 1008 7 11 0.05 1.27
2:53 pm 14:53 Cloudy 48 9 45 7 87 87 VRB 3 6 29.77 1008 10 16 0.00 0.00
3:44 pm 15:44 Cloudy 52 11 45 7 77 77 SSE 24 39 29.77 1008 10 16 0.00 0.00
3:53 pm 15:53 Cloudy 51 10.6 45 7.2 80 80 S 21 33 29.74 1007 10 16 0.00 0.00
4:53 pm 16:53 Cloudy 50 10 45 7.2 83 83 SSE 25 41 29.74 1007 10 16 0.00 0.00
5:33 pm 17:33 Cloudy 50 10 44 6.7 80 80 S 28 44 29.80 1009 10 16 0.00 0.00
5:44 pm 17:44 Cloudy 50 10 45 7 82 82 SSE 26 43 29.80 1009 10 16 0.00 0.00
5:53 pm 17:53 Cloudy 49 9.4 44 6.7 83 83 S 26 43 29.76 1008 10 16 0.00 0.00
6:53 pm 18:53 Cloudy with Light Rain 48 8.9 45 7.2 89 89 S 17 28 29.77 1008 5 8 0.00 0.03
7:23 pm 19:23 Cloudy 49 9.4 44 6.7 83 83 S 25 41 29.80 1009 10 16 0.02 0.51
7:53 pm 19:53 Cloudy with Light Rain 48 8.9 44 6.7 86 86 S 21 33 29.77 1008 6 10 0.02 0.51
8:05 pm 20:05 Cloudy with Light Rain 48 8.9 45 7.2 89 89 S 17 28 29.80 1009 8 13 0.01 0.25
8:42 pm 20:42 Cloudy with Light Rain 46 8 45 7 93 93 S 23 37 29.83 1010 7 11 0.00 0.00
8:53 pm 20:53 Cloudy with Light Rain 47 8.3 44 6.7 90 90 S 23 37 29.79 1009 9 14 0.02 0.51
9:29 pm 21:29 Cloudy with Light Rain 47 8.3 44 6.7 90 90 SSE 23 37 29.80 1009 6 10 0.08 2.03
9:53 pm 21:53 Cloudy with Light Rain 47 8.3 44 6.7 90 90 SSE 22 35 29.78 1008 7 11 0.14 3.56
10:22 pm 22:22 Cloudy with Light Rain 47 8.3 43 6.1 86 86 SSE 23 37 29.80 1009 9 14 0.00 0.03
10:53 pm 22:53 Cloudy with Rain 46 7.8 43 6.1 89 89 SSE 16 26 29.75 1007 7 11 0.07 1.78
11:00 pm 23:00 Cloudy with Rain 46 8 43 6 87 87 SSE 18 30 29.77 1008 7 11 0.00 0.00
11:53 pm 23:53 Cloudy with Light Rain 46 7.8 43 6.1 89 89 SSE 20 31 29.71 1006 7 11 0.09 2.29

Powered by AerisWeather